Weather History for South St. Paul, MN

Change the Weather History Date:

Tuesday, September 25, 2012

  Actual Average (KMSP) Record (KMSP)
Temperature  
Mean Temperature 57 °F 58 °F  
Max Temperature 67 °F 68 °F 91 °F (1920)
Min Temperature 47 °F 48 °F 31 °F (1926)
Degree Days  
Heating Degree Days 8 8  
Month to date heating degree days 109  
Since 1 July heating degree days 128  
Cooling Degree Days 0 1  
Month to date cooling degree days 62  
Year to date cooling degree days 743  
Growing Degree Days 7 (Base 50)    
Moisture  
Dew Point 38 °F    
Average Humidity 51    
Maximum Humidity 76    
Minimum Humidity 28    
Precipitation  
Precipitation 0.00 in 0.11 in 1.34 in (1934)
Month to date precipitation 2.60  
Year to date precipitation 24.77  
Snow  
Snow 0.00 in 0.00 in 0.00 in ()
Month to date snowfall 0.0  
Since 1 July snowfall 0.0  
Since 1 September snowfall 0.0  
Snow Depth -    
Sea Level Pressure  
Sea Level Pressure 29.87 in    
Wind  
Wind Speed 5 mph (North)    
Max Wind Speed 12 mph    
Max Gust Speed -    
Visibility 10 miles    
Events      
T = Trace of Precipitation, MM = Missing Value Source: NWS Daily Summary

Daily Weather History Graph

Daily Weather History Graph

Search for Another Location

Airport:

Trip Planner

Search our weather history database for the weather conditions in past years. The results will help you decide how hot, cold, wet, or windy it might be!

Date:

Astronomy

Sep. 25, 2012 Rise Set
Actual Time 7:03 AM CDT 7:02 PM CDT
Civil Twilight 6:34 AM CDT 7:32 PM CDT
Nautical Twilight 6:00 AM CDT 8:06 PM CDT
Astronomical Twilight 5:25 AM CDT 8:40 PM CDT
Moon 4:36 PM CDT (9/25) 2:15 AM CDT (9/25)
Length of Visible Light 12h 57m
Length of Day
11h 59m
Waxing Gibbous, 80% of the Moon is Illuminated
Sep 25
Waxing Gibbous
Sep 29
Full
Oct 8
Last Quarter
Oct 15
New
Oct 21
First Quarter

Hourly Weather History & Observations

Time (CDT) Temp. Dew Point Humidity Pressure Visibility Wind Dir Wind Speed Gust Speed Precip Events Conditions
12:12 AM 61.9 °F 36.5 °F 39% 29.76 in 10.0 mi West 4.6 mph - N/A   Clear
12:32 AM 59.9 °F 36.9 °F 42% 29.76 in 10.0 mi NW 4.6 mph - N/A   Clear
12:52 AM 59.7 °F 37.4 °F 43% 29.76 in 10.0 mi North 3.5 mph - N/A   Clear
1:12 AM 59.9 °F 38.5 °F 45% 29.77 in 10.0 mi North 8.1 mph - N/A   Clear
1:32 AM 58.6 °F 38.7 °F 47% 29.78 in 10.0 mi North 6.9 mph - N/A   Clear
1:52 AM 58.3 °F 38.8 °F 48% 29.78 in 10.0 mi North 5.8 mph - N/A   Clear
2:12 AM 58.3 °F 38.7 °F 48% 29.78 in 10.0 mi NNE 5.8 mph - N/A   Clear
2:32 AM 57.6 °F 38.7 °F 49% 29.79 in 10.0 mi North 4.6 mph - N/A   Clear
2:52 AM 56.7 °F 39.0 °F 52% 29.79 in 10.0 mi North 5.8 mph - N/A   Clear
3:12 AM 55.9 °F 39.2 °F 53% 29.80 in 10.0 mi NNE 5.8 mph - N/A   Clear
3:32 AM 55.2 °F 38.8 °F 54% 29.80 in 10.0 mi North 5.8 mph - N/A   Clear
3:52 AM 54.7 °F 39.2 °F 56% 29.80 in 10.0 mi North 4.6 mph - N/A   Clear
4:12 AM 53.6 °F 39.2 °F 58% 29.80 in 10.0 mi North 4.6 mph - N/A   Clear
4:32 AM 52.9 °F 39.4 °F 60% 29.81 in 10.0 mi North 3.5 mph - N/A   Clear
4:52 AM 51.1 °F 39.2 °F 64% 29.81 in 10.0 mi Calm Calm - N/A   Clear
5:12 AM 50.9 °F 39.4 °F 65% 29.81 in 10.0 mi North 3.5 mph - N/A   Clear
5:32 AM 49.5 °F 39.6 °F 69% 29.82 in 10.0 mi North 3.5 mph - N/A   Clear
5:52 AM 49.1 °F 39.6 °F 70% 29.82 in 10.0 mi North 3.5 mph - N/A   Clear
6:12 AM 48.7 °F 39.6 °F 71% 29.82 in 10.0 mi North 4.6 mph - N/A   Clear
6:32 AM 48.2 °F 39.6 °F 72% 29.82 in 10.0 mi North 4.6 mph - N/A   Clear
6:52 AM 47.3 °F 39.2 °F 73% 29.83 in 10.0 mi North 3.5 mph - N/A   Clear
7:12 AM 47.3 °F 39.6 °F 74% 29.84 in 10.0 mi North 3.5 mph - N/A   Clear
7:32 AM 47.1 °F 39.7 °F 76% 29.85 in 10.0 mi North 3.5 mph - N/A   Clear
7:52 AM 48.4 °F 40.1 °F 73% 29.86 in 10.0 mi North 4.6 mph - N/A   Clear
8:12 AM 49.3 °F 40.1 °F 71% 29.87 in 10.0 mi NNE 3.5 mph - N/A   Clear
8:32 AM 50.4 °F 40.3 °F 68% 29.88 in 10.0 mi North 3.5 mph - N/A   Clear
8:52 AM 51.6 °F 39.9 °F 64% 29.89 in 10.0 mi NNE 5.8 mph - N/A   Clear
9:12 AM 52.9 °F 39.6 °F 61% 29.90 in 10.0 mi NE 4.6 mph - N/A   Clear
9:32 AM 53.8 °F 39.4 °F 58% 29.90 in 10.0 mi NNE 5.8 mph - N/A   Clear
9:52 AM 55.4 °F 39.7 °F 56% 29.91 in 10.0 mi NE 5.8 mph - N/A   Clear
10:12 AM 56.3 °F 40.1 °F 55% 29.91 in 10.0 mi NE 4.6 mph - N/A   Clear
10:32 AM 57.2 °F 40.3 °F 53% 29.91 in 10.0 mi North 4.6 mph - N/A   Clear
10:52 AM 57.9 °F 40.1 °F 52% 29.91 in 10.0 mi North 5.8 mph - N/A   Clear
11:12 AM 60.1 °F 40.3 °F 48% 29.91 in 10.0 mi North 5.8 mph - N/A   Clear
11:32 AM 61.9 °F 39.9 °F 44% 29.91 in 10.0 mi North 8.1 mph - N/A   Clear
11:52 AM 63.1 °F 39.7 °F 42% 29.91 in 10.0 mi North 6.9 mph - N/A   Clear
12:12 PM 63.7 °F 39.0 °F 40% 29.91 in 10.0 mi North 8.1 mph - N/A   Clear
12:32 PM 63.3 °F 38.7 °F 40% 29.90 in 10.0 mi NNW 8.1 mph - N/A   Clear
12:52 PM 65.3 °F 38.1 °F 37% 29.90 in 10.0 mi North 8.1 mph - N/A   Clear
1:12 PM 64.8 °F 37.0 °F 36% 29.90 in 10.0 mi NNW 6.9 mph - N/A   Clear
2:12 PM 67.5 °F 33.4 °F 28% 29.88 in 10.0 mi North 8.1 mph - N/A   Clear
2:32 PM 67.1 °F 33.3 °F 29% 29.88 in 10.0 mi NNE 8.1 mph - N/A   Clear
2:52 PM 66.7 °F 32.2 °F 28% 29.88 in 10.0 mi North 11.5 mph - N/A   Clear
3:12 PM 66.4 °F 33.4 °F 29% 29.88 in 10.0 mi North 6.9 mph - N/A   Clear
3:32 PM 66.9 °F 33.6 °F 29% 29.88 in 10.0 mi NNW 8.1 mph - N/A   Scattered Clouds
3:52 PM 66.9 °F 32.4 °F 28% 29.88 in 10.0 mi North 11.5 mph - N/A   Clear
4:12 PM 66.6 °F 32.2 °F 28% 29.88 in 10.0 mi North 9.2 mph - N/A   Clear
4:32 PM 66.4 °F 33.1 °F 29% 29.88 in 7.0 mi North 4.6 mph - N/A   Clear
4:52 PM 65.5 °F 32.4 °F 29% 29.88 in 10.0 mi North 6.9 mph - N/A   Clear
5:12 PM 65.3 °F 32.2 °F 29% 29.89 in 10.0 mi North 5.8 mph - N/A   Clear
5:32 PM 64.8 °F 32.0 °F 29% 29.89 in 10.0 mi North 9.2 mph - N/A   Clear
5:52 PM 64.6 °F 32.0 °F 30% 29.89 in 10.0 mi NW 5.8 mph - N/A   Clear
6:12 PM 64.2 °F 31.8 °F 30% 29.90 in 10.0 mi North 4.6 mph - N/A   Clear
6:32 PM 62.8 °F 32.2 °F 32% 29.90 in 10.0 mi North 4.6 mph - N/A   Clear
6:52 PM 61.7 °F 32.9 °F 34% 29.90 in 10.0 mi North 4.6 mph - N/A   Clear
7:12 PM 61.0 °F 34.2 °F 37% 29.91 in 10.0 mi North 3.5 mph - N/A   Clear
7:52 PM 56.7 °F 39.6 °F 53% 29.92 in 10.0 mi Calm Calm - N/A   Clear
8:12 PM 54.9 °F 39.6 °F 56% 29.92 in 10.0 mi Calm Calm - N/A   Clear
8:32 PM 53.6 °F 39.2 °F 58% 29.93 in 10.0 mi Calm Calm - N/A   Clear
8:52 PM 52.7 °F 39.6 °F 61% 29.93 in 10.0 mi Calm Calm - N/A   Clear
9:12 PM 51.6 °F 39.7 °F 64% 29.94 in 10.0 mi Calm Calm - N/A   Clear
9:32 PM 50.9 °F 40.1 °F 67% 29.94 in 10.0 mi Calm Calm - N/A   Clear
9:52 PM 50.2 °F 39.7 °F 67% 29.95 in 10.0 mi Calm Calm - N/A   Clear
10:12 PM 49.5 °F 38.8 °F 67% 29.95 in 10.0 mi Calm Calm - N/A   Clear
10:32 PM 48.7 °F 40.3 °F 73% 29.95 in 10.0 mi Calm Calm - N/A   Clear
10:52 PM 48.2 °F 39.4 °F 72% 29.95 in 10.0 mi Calm Calm - N/A   Clear
11:32 PM 47.8 °F 39.0 °F 71% 29.95 in 10.0 mi Calm Calm - N/A   Clear
11:52 PM 47.3 °F 39.0 °F 73% 29.95 in 10.0 mi Calm Calm - N/A   Clear